Location: Franzen
(48.6167°N, 15.3833°E)
Time: 07:42:47
(UTC+00:00)

Altair - Pass Details

Date: 09 August 2021
Orbit: 1501 x 1682 km, 47.2° (Epoch: 20 September)

Event Time Altitude Azimuth Distance (km) Brightness Sun altitude
Rises 04:49:04 0° 289° (WNW) 4,681 9.5 9.4°
Reaches altitude 10° 04:52:24 10° 282° (WNW) 3,680 9.0 9.9°
Maximum altitude 05:00:33 37° 220° (SW) 2,176 8.1 11.2°
Drops below altitude 10° 05:08:39 10° 157° (SSE) 3,650 9.7 12.5°
Sets 05:11:57 0° 149° (SSE) 4,639 10.3 13.1°
